Wind_Speed
38 39 39 39 39 40 42 45 47 50 52 53 52 50 50 50 51 52 53 54 52 51 50 49 47 46 45 45 46 46 47 48 48 49 50 50 51 50 50 50 51 53 54 53 53 52 52 53 54 55 55 55 55 55 55 56 55 54 53 52 50 48 48
38 38 38 38 38 38 39 41 43 45 48 51 53 52 51 49 49 50 52 53 53 52 51 51 50 49 47 46 46 45 46 46 47 47 48 49 50 50 50 50 51 52 54 55 54 53 53 54 56 57 57 57 56 55 53 52 51 50 50 49 48 47 47
38 38 38 38 38 38 38 39 40 41 43 47 50 52 52 50 48 49 50 51 53 53 52 52 52 51 50 49 48 47 46 46 46 46 47 47 47 48 49 50 50 51 52 53 53 53 53 53 53 54 54 54 53 52 51 50 48 48 48 48 48 47 46
39 39 39 39 38 38 38 38 39 39 40 42 45 48 50 50 49 48 48 49 51 52 53 53 53 52 51 50 50 49 48 47 47 46 46 46 46 46 47 47 48 49 49 50 51 51 51 51 50 51 51 50 50 50 50 49 48 47 47 47 47 47 47
39 39 40 40 40 39 38 38 38 39 38 39 41 43 46 48 48 47 46 47 48 50 52 54 54 54 53 51 50 49 49 48 48 48 47 47 46 46 46 46 46 46 47 47 48 48 48 48 48 48 48 48 48 48 48 48 47 47 46 46 47 47 48
40 40 41 41 42 41 40 39 38 38 38 38 39 40 42 44 46 46 46 46 46 47 49 51 53 54 55 53 51 49 49 49 49 48 48 47 47 47 46 46 46 46 46 46 46 47 47 47 47 47 46 46 46 46 47 47 47 46 47 47 47 47 48
40 40 41 42 43 43 41 40 39 39 38 38 38 38 39 40 42 44 45 46 45 45 46 48 50 52 53 55 54 52 50 49 48 48 48 48 48 48 47 47 47 47 47 47 47 47 48 48 48 48 47 47 47 47 47 48 48 48 48 48 48 49 49
40 39 40 41 42 43 42 41 39 39 38 38 37 37 38 39 40 41 43 44 45 44 44 46 47 48 50 51 53 54 53 51 49 48 47 47 48 49 48 48 48 48 48 48 48 49 49 50 50 50 51 50 50 49 50 50 51 52 51 51 52 52 53
39 38 38 39 40 41 41 40 39 39 39 38 37 37 38 38 39 39 40 42 43 43 43 44 45 46 47 48 49 51 52 53 52 50 49 48 48 47 47 48 48 48 48 49 49 49 50 50 51 52 52 53 53 53 53 53 54 55 55 55 56 56 56
39 38 38 38 38 39 40 39 39 39 38 38 37 37 37 38 38 38 38 39 41 42 42 42 43 43 44 45 46 47 48 49 51 51 52 51 50 50 49 48 48 48 48 48 49 49 49 50 51 52 53 53 54 55 55 55 56 56 57 58 58 58 57
41 40 39 38 38 38 39 39 38 38 37 37 37 36 37 37 37 37 37 38 38 39 40 40 40 41 41 42 44 45 46 47 48 48 49 49 50 50 51 51 51 50 50 50 50 50 51 51 52 53 53 54 54 54 54 55 55 56 56 57 58 58 58
41 41 40 39 38 38 37 37 37 37 36 36 35 35 35 36 36 36 36 36 36 36 37 37 37 38 39 40 41 43 45 45 46 46 46 47 47 47 48 49 49 50 50 50 50 51 51 52 53 53 54 55 55 54 54 54 54 54 55 56 57 57 57
41 40 40 39 39 38 37 36 36 35 35 34 33 32 34 35 35 35 35 34 34 34 35 35 36 37 38 39 40 41 42 43 44 45 45 46 46 46 46 47 47 48 48 48 48 49 50 51 51 52 53 53 54 54 54 54 54 54 55 55 56 56 56
40 40 41 40 40 39 37 36 35 34 33 32 30 30 33 34 34 33 33 33 33 33 33 34 34 34 35 36 37 38 39 41 41 42 44 44 45 45 45 46 46 47 47 47 47 48 48 48 49 50 51 52 53 53 54 54 54 54 54 55 55 56 55
40 41 41 41 40 39 37 35 34 32 31 29 28 29 31 32 31 31 32 32 32 32 31 31 31 31 31 32 33 35 37 38 38 39 41 42 42 42 42 43 44 44 45 46 46 47 47 47 48 49 51 52 52 53 53 54 54 54 54 55 55 55 55
42 42 42 41 39 37 35 33 31 29 28 26 26 28 30 30 29 30 30 31 31 30 30 29 28 27 27 29 31 32 34 35 35 35 36 37 38 38 39 39 39 40 41 42 43 44 45 46 47 48 49 51 51 51 51 52 53 54 54 54 55 54 54
43 42 40 39 37 34 31 29 28 27 25 23 23 26 29 28 27 28 28 29 29 28 28 27 25 23 24 27 29 31 32 33 32 32 32 32 34 34 34 34 35 36 37 38 39 41 41 42 43 44 45 46 47 48 48 48 50 51 51 52 52 52 53
41 39 37 35 32 29 26 26 25 24 22 21 22 25 27 25 24 25 25 25 25 25 25 24 23 21 22 24 26 29 31 31 29 27 27 28 29 29 30 30 31 32 33 34 35 36 37 38 38 39 40 41 42 43 44 45 46 47 47 48 49 50 50
37 34 32 30 27 24 23 23 23 21 20 20 22 24 24 22 21 21 22 21 22 22 23 22 21 20 20 21 24 26 29 28 25 23 24 25 25 26 27 27 27 29 30 31 32 33 33 34 35 36 37 38 39 41 42 43 45 46 46 47 48 49 49
31 29 27 25 23 21 20 20 20 18 17 20 21 21 20 19 18 18 18 19 20 21 21 20 19 18 17 19 21 23 25 25 22 20 22 23 23 23 24 25 25 26 27 29 30 31 32 34 35 36 37 38 39 41 42 43 45 46 47 48 49 50 51
26 24 23 21 19 18 16 17 17 16 16 19 21 18 16 15 15 15 17 18 19 19 18 17 17 16 17 18 19 19 21 22 21 20 21 22 22 23 23 24 25 26 26 28 29 30 32 33 34 36 37 38 39 40 42 43 45 46 47 49 49 50 51
23 21 20 18 16 14 13 14 16 15 15 18 19 15 12 12 13 15 17 17 17 16 16 16 16 16 16 17 17 18 19 20 21 21 21 22 23 23 24 24 25 26 26 27 28 29 30 31 32 33 35 36 37 38 39 40 42 44 45 47 48 50 51
20 18 16 14 12 12 12 13 14 15 15 17 17 13 9 9 13 15 15 14 14 14 15 15 16 16 16 17 17 18 19 20 20 21 21 22 22 23 23 23 23 24 24 24 24 25 26 27 28 29 29 30 31 32 33 34 36 37 40 42 44 46 49
16 14 13 12 11 11 12 12 13 14 15 15 15 11 8 9 12 13 13 12 13 13 14 14 15 15 15 16 16 17 17 18 18 18 18 18 19 19 18 18 18 18 18 18 18 18 19 19 20 21 22 23 24 25 26 27 29 31 32 34 37 39 42
13 12 11 10 10 11 11 11 12 12 14 14 13 11 10 10 10 10 11 11 12 12 12 12 13 13 12 13 13 14 14 14 14 14 13 13 13 12 12 11 11 11 11 11 12 12 13 14 15 16 17 18 19 21 22 23 25 27 28 30 32 34 37
11 10 9 10 10 10 10 10 10 11 12 13 12 11 11 10 9 8 9 10 10 9 9 9 9 9 9 10 10 9 9 9 9 8 8 7 7 6 6 6 7 7 8 9 10 11 12 13 14 15 17 18 19 20 21 22 23 25 26 28 30 32 34
9 8 8 9 10 9 9 9 9 9 10 11 11 12 10 8 7 7 7 7 7 7 7 7 7 7 6 6 6 5 5 5 5 4 4 4 4 4 5 6 7 8 9 10 11 12 13 14 16 17 18 19 19 20 21 22 23 24 25 27 28 30 32
8 7 8 9 9 9 9 9 8 8 8 8 10 12 10 7 6 5 5 5 5 5 5 5 4 4 4 4 5 5 4 4 3 3 3 3 4 5 6 7 8 9 10 11 12 13 14 15 16 17 18 19 20 21 22 23 24 25 26 27 28 30 31
6 7 8 9 9 9 8 8 8 8 7 6 8 10 9 6 4 4 4 4 4 4 4 4 5 5 5 5 5 4 3 3 3 3 3 4 5 6 7 8 9 10 11 12 13 14 15 16 17 17 18 19 20 21 22 23 24 26 27 28 29 30 31
4 7 9 10 10 9 7 7 8 8 7 6 6 7 7 4 3 4 4 4 4 5 5 6 6 6 5 4 4 3 3 2 2 3 4 5 6 7 9 10 11 11 12 13 14 15 15 16 17 18 19 20 21 22 23 23 24 25 26 27 28 29 30
3 6 9 10 10 9 7 7 8 8 7 5 4 5 5 4 3 4 4 5 6 7 7 6 6 5 3 3 2 1 1 2 3 4 6 7 8 9 10 11 11 12 13 13 14 15 15 16 17 18 18 19 20 21 22 22 23 24 25 26 28 29 31
4 5 7 9 11 10 8 7 7 7 6 5 4 4 4 4 4 5 6 7 8 7 6 5 4 3 2 1 1 1 3 4 5 6 8 9 10 10 11 12 12 12 13 13 14 15 15 16 16 17 18 18 19 20 20 21 22 23 25 27 28 30 32
6 5 6 7 9 10 9 7 6 6 5 4 4 3 4 6 7 8 8 8 7 6 4 3 2 2 1 0 1 3 4 5 6 8 8 9 10 11 12 12 12 12 13 13 14 14 15 15 16 16 17 18 19 20 21 22 24 25 26 28 29 31 32
6 6 6 6 7 9 8 7 6 6 5 5 4 4 6 8 9 9 8 7 5 4 3 2 2 2 1 0 2 3 4 6 7 8 9 10 10 11 11 11 11 12 12 13 13 13 14 15 16 17 18 19 20 21 22 24 25 26 27 28 30 31 32
7 7 7 7 7 8 7 6 6 6 6 6 6 7 9 10 10 8 7 5 4 3 2 2 2 2 1 1 2 4 5 6 7 8 9 9 10 10 10 11 11 11 11 12 13 13 14 15 16 17 18 19 20 21 22 23 25 26 28 30 31 32 33
9 9 9 9 8 8 7 7 6 7 8 7 8 9 10 10 9 7 5 4 3 3 2 2 2 2 0 2 3 4 5 6 7 8 9 9 9 9 10 10 10 11 11 12 13 14 14 15 15 16 17 18 20 21 22 24 26 27 29 31 32 33 33
Wind_Direction
290 287 284 281 279 275 271 266 261 259 259 260 260 260 258 255 252 251 251 252 253 253 253 252 252 252 252 252 251 250 249 249 249 250 251 252 252 252 251 251 251 253 253 252 251 250 249 250 250 251 252 253 254 255 256 257 257 257 257 256 256 255 255
293 291 289 286 283 280 277 273 268 263 260 259 259 259 259 258 255 253 250 250 250 252 253 253 252 252 252 253 252 252 251 250 249 249 249 249 249 250 250 250 251 252 252 253 252 252 251 251 252 253 254 255 256 256 255 255 254 253 253 253 252 252 251
294 294 292 290 288 284 281 278 275 271 265 261 258 258 259 259 257 255 253 250 249 248 249 251 251 251 252 252 253 253 252 251 250 249 249 248 248 248 248 249 250 251 251 252 252 252 252 252 252 253 253 253 254 254 253 252 251 251 251 251 250 250 249
293 293 293 292 291 288 285 282 280 277 273 267 262 258 257 258 258 257 255 252 250 248 247 248 249 250 251 251 252 252 253 252 252 251 250 249 249 249 248 248 249 250 251 251 252 253 253 252 252 252 252 252 252 251 251 250 249 248 248 248 248 248 247
292 291 292 292 291 290 288 285 283 280 277 273 268 263 259 257 258 258 256 254 251 250 248 247 246 247 248 249 249 250 251 252 252 251 251 251 251 250 250 250 250 250 250 251 251 252 253 253 252 252 252 252 251 250 250 249 248 247 246 246 246 247 247
291 290 289 289 289 289 288 287 284 282 280 277 272 268 263 259 258 257 257 255 253 250 249 248 246 245 245 246 248 248 248 249 249 250 250 250 251 251 250 251 251 251 251 251 252 253 253 254 254 254 253 253 252 252 251 251 250 249 248 248 248 248 249
293 290 287 286 286 286 287 286 284 282 281 279 276 271 266 263 260 258 257 257 255 252 249 248 247 246 245 245 246 247 247 247 247 247 247 248 248 249 249 249 249 250 251 251 251 252 253 254 255 255 255 254 254 253 253 253 253 252 251 252 252 251 252
296 292 288 285 284 284 284 284 283 282 281 280 277 273 269 265 262 259 257 256 256 255 252 249 247 247 246 245 245 246 246 246 247 246 246 246 246 247 247 247 248 248 249 250 250 251 252 253 254 255 256 255 255 255 254 255 255 254 253 254 254 254 254
297 294 290 287 286 285 284 284 283 282 282 280 278 274 271 268 264 260 258 256 256 255 255 253 249 247 247 247 246 246 246 246 247 247 247 247 247 247 247 247 247 247 247 247 248 249 250 251 252 253 254 255 255 255 255 256 257 257 256 256 256 256 257
297 296 294 292 290 288 286 285 283 283 282 281 278 275 272 269 266 262 259 257 256 255 255 255 253 250 248 247 248 248 248 248 248 248 248 248 248 248 248 248 248 248 248 247 248 248 248 249 250 251 253 253 254 255 255 256 256 257 258 258 258 258 259
297 297 296 294 292 289 287 285 284 283 282 280 279 276 272 269 266 263 260 257 256 255 255 255 255 255 252 249 248 248 248 249 248 248 248 249 249 249 249 250 250 250 250 250 250 250 250 250 250 251 253 253 254 255 255 256 256 257 257 258 259 259 259
296 295 295 293 291 289 288 286 284 282 280 279 277 274 272 269 265 262 259 258 257 256 256 255 255 256 254 252 249 247 247 248 248 248 248 249 249 250 250 250 251 251 252 252 253 253 253 253 252 253 254 255 256 257 258 258 259 259 258 258 259 259 259
295 295 294 294 293 292 290 287 284 281 279 277 275 271 269 267 264 262 259 258 258 257 256 255 254 254 254 253 251 249 247 247 247 248 249 249 250 250 250 251 251 251 252 252 253 254 255 255 255 255 256 256 257 257 258 259 260 260 260 260 260 259 259
296 296 295 295 294 293 291 287 283 279 276 275 271 267 266 265 263 262 260 259 258 256 256 256 256 256 255 254 253 252 250 248 247 248 249 250 250 251 251 251 252 252 253 253 254 255 255 257 257 258 258 258 258 258 258 259 259 260 260 260 261 260 260
297 297 295 294 293 291 289 285 281 277 274 271 268 264 264 263 262 262 261 260 258 257 256 256 257 258 256 254 252 252 251 250 249 248 248 249 250 251 252 252 252 253 254 254 255 255 256 257 257 258 259 259 259 260 261 261 261 261 261 262 262 262 262
297 295 294 292 290 288 285 281 278 275 272 269 265 263 262 262 261 261 260 260 259 257 256 255 255 255 255 253 252 250 250 251 251 249 249 249 250 251 252 252 252 252 253 253 254 255 255 255 256 257 258 259 259 260 261 262 262 263 263 263 263 263 263
295 293 291 289 287 284 281 278 275 272 270 266 261 260 261 260 260 260 259 259 258 257 256 255 254 252 251 252 252 251 251 251 250 248 247 248 249 250 251 252 252 252 252 252 253 254 255 256 256 257 258 259 259 259 260 261 262 263 263 263 263 262 262
293 291 288 286 283 281 277 274 272 270 268 263 257 257 259 260 260 259 259 258 257 257 256 255 253 251 249 250 251 252 252 250 249 248 245 245 246 248 249 250 251 252 253 253 254 255 257 258 258 259 260 261 262 262 263 263 264 264 265 265 265 264 264
290 287 285 282 280 278 274 272 271 268 264 260 256 256 259 260 259 258 258 258 257 255 254 253 252 250 250 250 251 253 253 251 250 250 248 245 245 245 246 247 249 251 254 255 257 258 259 260 261 262 263 264 265 265 266 266 267 268 268 268 268 268 268
288 285 282 280 279 276 273 270 267 264 260 258 256 257 259 260 258 256 257 256 255 254 254 254 253 252 251 249 250 252 254 253 251 252 252 250 249 250 250 251 251 253 255 258 261 262 264 265 265 266 266 267 268 269 269 269 270 271 271 271 271 271 270
286 283 280 279 278 275 270 265 262 259 257 258 259 259 259 259 257 254 254 253 252 254 256 258 258 256 252 250 250 252 255 256 256 256 256 256 256 257 257 258 258 259 259 261 262 264 266 268 269 270 271 271 272 273 273 274 274 274 275 275 274 274 273
285 283 281 279 275 269 263 260 260 259 255 257 262 263 258 258 256 252 250 251 253 256 258 259 259 258 255 254 254 254 256 257 260 261 260 260 261 262 262 262 262 262 262 262 263 264 265 266 268 269 270 271 272 273 275 276 276 277 278 278 278 278 277
285 282 279 275 270 263 257 254 257 259 258 261 267 266 253 249 253 253 252 253 254 254 254 254 254 255 254 254 255 255 256 258 260 262 262 262 263 263 263 263 263 263 263 263 263 263 264 265 266 267 269 270 272 273 274 275 276 277 278 279 280 280 280
284 280 277 272 265 258 253 251 254 260 263 267 273 272 257 247 250 254 257 257 253 250 250 250 251 251 252 253 253 254 255 256 258 259 259 260 260 261 261 262 262 263 263 264 265 265 266 267 269 270 272 273 275 276 278 279 280 280 281 282 282 283 282
282 278 275 270 263 258 257 257 258 261 265 270 275 276 269 260 255 253 253 253 252 251 249 249 249 248 247 247 247 248 250 251 253 254 255 256 257 258 260 261 263 266 267 270 273 274 275 277 278 279 281 281 282 283 284 285 286 286 286 286 286 286 286
281 278 273 268 265 263 262 262 261 261 264 269 272 272 268 265 262 259 255 253 254 253 249 246 245 245 243 243 243 244 244 243 243 243 243 246 248 252 257 262 266 272 274 277 280 282 283 284 285 286 286 287 288 288 289 290 291 291 291 291 290 290 290
280 278 273 270 270 269 266 265 263 262 264 269 272 271 270 269 267 263 258 254 249 247 245 243 242 242 240 236 231 222 216 214 213 214 219 229 242 250 260 268 273 278 282 285 286 287 288 289 290 290 291 292 293 293 293 294 294 293 293 293 293 292 291
282 278 274 273 273 272 274 276 274 268 263 264 269 273 276 278 270 258 250 246 245 244 242 235 228 218 203 191 183 175 172 178 186 202 225 244 258 267 274 280 284 287 290 291 292 293 295 296 297 297 298 298 298 298 298 299 298 297 297 297 296 295 294
282 276 274 275 276 277 278 279 278 274 267 259 264 272 278 277 263 254 246 237 232 225 209 188 174 165 160 156 156 158 165 184 210 235 254 270 282 289 293 294 295 296 297 298 300 301 303 303 303 303 304 303 303 303 303 303 303 302 302 302 302 302 301
277 273 275 277 279 282 284 282 279 278 276 266 257 262 271 271 251 239 229 210 193 177 163 154 148 147 151 156 166 178 195 216 244 272 291 301 304 305 306 305 305 305 305 305 306 307 307 307 307 307 307 307 308 308 308 307 307 306 307 307 308 309 309
271 268 275 281 284 286 286 283 280 280 280 270 239 232 247 252 228 206 188 171 160 152 148 148 149 154 165 177 189 215 259 294 313 318 318 317 316 315 314 312 311 311 310 310 310 310 311 311 310 310 311 311 311 311 311 311 311 312 312 313 313 314 315
285 259 263 275 284 289 290 285 280 278 275 262 235 223 222 207 189 175 162 155 150 147 148 154 162 171 187 201 264 323 330 330 328 326 325 323 322 321 319 318 317 317 316 315 315 315 315 315 316 316 316 315 315 314 314 314 314 314 315 315 315 316 317
298 276 260 264 276 285 289 286 276 268 256 238 227 216 189 172 167 161 154 151 150 152 159 169 177 186 195 228 333 334 333 330 329 329 328 328 326 324 323 322 321 320 320 320 320 321 321 321 322 322 321 320 319 317 316 316 316 316 317 317 317 318 320
302 294 284 275 274 279 282 278 265 248 231 217 208 192 171 163 160 158 156 156 159 166 176 182 186 190 196 301 337 335 333 331 331 332 331 329 327 325 324 323 323 324 325 326 327 327 327 327 326 325 323 321 320 320 319 320 320 320 320 320 320 320 321
306 303 298 292 286 281 277 271 253 229 214 205 193 179 170 165 163 162 163 168 174 179 187 191 192 190 204 337 339 337 335 335 336 334 332 329 328 328 328 329 331 332 333 333 332 330 329 327 326 324 323 322 322 322 322 322 322 322 321 321 321 321 322
305 305 302 296 291 282 273 264 243 220 207 198 187 179 174 173 172 172 176 183 189 193 199 198 193 190 285 342 342 339 338 339 339 336 334 332 332 334 336 337 338 339 336 334 332 329 328 328 328 328 328 327 326 325 324 323 324 324 324 324 323 323 323
Height
2925 2924 2923 2922 2921 2920 2919 2919 2919 2919 2918 2918 2918 2918 2919 2919 2919 2920 2921 2921 2923 2924 2925 2926 2928 2929 2931 2932 2933 2935 2936 2937 2938 2939 2941 2942 2943 2944 2945 2946 2945 2945 2949 2951 2953 2956 2958 2959 2961 2962 2963 2965 2966 2967 2969 2970 2972 2973 2974 2976 2977 2978 2980
2919 2918 2917 2915 2914 2914 2913 2912 2911 2911 2911 2911 2910 2911 2911 2912 2912 2913 2914 2914 2915 2916 2917 2918 2920 2922 2924 2925 2926 2928 2929 2930 2931 2932 2933 2935 2935 2937 2938 2939 2939 2939 2941 2943 2945 2947 2949 2950 2952 2953 2955 2957 2958 2959 2961 2962 2964 2965 2966 2968 2970 2971 2973
2913 2912 2910 2909 2908 2907 2906 2905 2904 2904 2904 2903 2903 2903 2903 2904 2905 2905 2906 2907 2907 2909 2910 2911 2912 2914 2916 2918 2919 2920 2921 2923 2924 2925 2926 2927 2928 2930 2931 2932 2933 2933 2935 2936 2938 2940 2941 2943 2944 2945 2947 2949 2950 2952 2953 2955 2957 2958 2959 2961 2962 2964 2966
2908 2906 2904 2903 2902 2901 2900 2899 2898 2897 2897 2896 2896 2896 2896 2896 2897 2897 2898 2899 2900 2901 2903 2904 2906 2907 2909 2910 2911 2913 2914 2916 2917 2918 2919 2920 2921 2923 2924 2925 2926 2927 2928 2930 2931 2932 2934 2936 2937 2938 2939 2941 2943 2944 2946 2947 2949 2950 2952 2953 2954 2956 2959
2903 2901 2899 2897 2895 2895 2894 2893 2892 2891 2890 2889 2889 2888 2889 2889 2889 2890 2890 2891 2892 2894 2895 2897 2898 2900 2902 2903 2904 2906 2907 2908 2910 2911 2912 2913 2915 2916 2917 2919 2920 2921 2922 2924 2925 2926 2927 2928 2930 2931 2932 2934 2935 2936 2938 2939 2941 2943 2944 2945 2947 2949 2950
2897 2895 2893 2891 2889 2888 2887 2887 2886 2884 2883 2883 2882 2882 2882 2882 2882 2882 2883 2883 2885 2886 2888 2889 2891 2893 2895 2896 2897 2898 2900 2901 2902 2903 2905 2907 2908 2909 2911 2912 2913 2915 2916 2918 2919 2919 2920 2921 2922 2923 2925 2926 2927 2929 2930 2932 2933 2935 2937 2939 2940 2942 2943
2891 2889 2887 2885 2883 2881 2881 2880 2879 2878 2877 2877 2876 2875 2875 2875 2875 2875 2875 2876 2877 2879 2880 2881 2883 2885 2887 2888 2890 2891 2893 2894 2895 2896 2898 2899 2901 2903 2904 2906 2907 2908 2910 2911 2912 2913 2913 2914 2915 2916 2917 2918 2920 2922 2923 2924 2925 2927 2930 2932 2933 2935 2936
2885 2883 2881 2879 2877 2875 2874 2873 2873 2871 2871 2870 2869 2869 2868 2868 2868 2869 2869 2869 2870 2871 2872 2874 2876 2878 2879 2881 2882 2884 2886 2887 2888 2890 2891 2893 2895 2896 2898 2899 2900 2902 2903 2905 2906 2906 2906 2907 2908 2908 2909 2910 2912 2914 2916 2917 2917 2920 2923 2924 2925 2927 2929
2878 2876 2875 2873 2871 2869 2868 2867 2866 2865 2864 2864 2863 2863 2862 2861 2862 2862 2863 2863 2864 2865 2865 2867 2869 2870 2872 2873 2875 2876 2878 2880 2882 2883 2885 2887 2888 2890 2891 2892 2894 2895 2896 2898 2899 2900 2900 2901 2901 2901 2901 2903 2904 2906 2908 2909 2910 2912 2915 2916 2917 2921 2922
2872 2870 2869 2867 2865 2863 2862 2861 2860 2859 2858 2857 2857 2856 2855 2855 2856 2856 2857 2857 2858 2859 2859 2860 2861 2863 2865 2867 2868 2870 2871 2873 2874 2876 2878 2880 2881 2883 2884 2885 2887 2888 2889 2891 2892 2893 2893 2894 2894 2893 2894 2895 2897 2898 2901 2902 2903 2905 2907 2908 2909 2913 2916
2866 2864 2862 2861 2859 2858 2857 2855 2854 2853 2852 2851 2850 2850 2849 2849 2850 2850 2851 2851 2852 2853 2854 2855 2856 2857 2859 2860 2862 2863 2864 2865 2867 2869 2871 2873 2874 2875 2877 2878 2880 2881 2883 2884 2885 2885 2886 2887 2887 2887 2887 2888 2890 2891 2893 2895 2896 2898 2900 2900 2901 2905 2908
2861 2859 2857 2855 2854 2852 2851 2850 2848 2847 2846 2845 2845 2843 2843 2843 2844 2844 2845 2845 2846 2847 2848 2849 2851 2851 2852 2853 2855 2856 2857 2858 2860 2863 2865 2866 2868 2869 2870 2871 2873 2874 2876 2877 2878 2879 2879 2879 2880 2881 2880 2882 2883 2884 2886 2887 2888 2890 2892 2892 2894 2896 2899
2855 2853 2851 2849 2847 2846 2845 2844 2843 2842 2840 2840 2839 2838 2837 2837 2838 2838 2839 2840 2841 2841 2842 2844 2845 2846 2846 2847 2848 2849 2850 2852 2854 2857 2858 2860 2861 2862 2863 2865 2866 2868 2869 2870 2871 2872 2871 2872 2874 2874 2874 2875 2876 2877 2879 2880 2881 2882 2882 2883 2886 2888 2891
2849 2847 2845 2843 2841 2840 2839 2838 2837 2836 2835 2835 2834 2833 2832 2832 2832 2833 2834 2835 2836 2837 2838 2839 2840 2841 2841 2841 2842 2843 2844 2846 2849 2851 2853 2854 2854 2855 2857 2858 2859 2861 2862 2863 2864 2864 2865 2865 2866 2866 2867 2868 2869 2871 2872 2872 2873 2874 2874 2876 2878 2879 2882
2843 2841 2839 2837 2835 2835 2833 2832 2831 2831 2830 2830 2829 2828 2827 2827 2828 2829 2829 2830 2831 2832 2834 2835 2835 2835 2835 2836 2837 2838 2838 2841 2844 2846 2847 2848 2848 2849 2851 2852 2853 2854 2855 2856 2857 2857 2858 2859 2859 2860 2860 2860 2862 2864 2865 2865 2865 2866 2867 2869 2870 2872 2874
2837 2835 2833 2831 2830 2829 2828 2827 2826 2826 2825 2825 2824 2823 2823 2823 2824 2824 2825 2825 2826 2828 2829 2830 2831 2830 2830 2831 2832 2832 2834 2836 2839 2841 2842 2842 2843 2844 2845 2846 2847 2848 2849 2850 2850 2850 2851 2852 2853 2854 2854 2853 2856 2858 2858 2858 2858 2859 2860 2861 2863 2865 2867
2831 2828 2827 2825 2824 2823 2822 2822 2821 2821 2821 2821 2820 2819 2818 2819 2820 2820 2820 2821 2822 2823 2824 2825 2826 2826 2826 2827 2827 2828 2830 2832 2835 2836 2837 2837 2838 2839 2840 2840 2841 2842 2842 2843 2844 2844 2845 2846 2847 2848 2848 2848 2850 2851 2852 2852 2851 2852 2853 2854 2856 2858 2859
2825 2822 2821 2820 2819 2818 2818 2817 2817 2817 2817 2817 2816 2815 2815 2816 2817 2816 2817 2817 2818 2819 2820 2821 2822 2822 2823 2823 2823 2823 2825 2828 2830 2831 2832 2833 2834 2835 2835 2835 2836 2836 2837 2838 2839 2839 2840 2841 2842 2843 2843 2843 2844 2845 2845 2846 2845 2845 2847 2848 2848 2849 2851
2819 2817 2815 2814 2814 2814 2814 2813 2813 2813 2813 2812 2812 2811 2812 2813 2814 2814 2814 2814 2815 2815 2816 2817 2818 2819 2819 2820 2820 2820 2821 2823 2826 2827 2827 2829 2830 2831 2831 2831 2832 2832 2833 2833 2834 2834 2835 2836 2836 2837 2837 2838 2838 2838 2839 2839 2838 2839 2840 2840 2841 2841 2842
2814 2812 2811 2810 2811 2811 2810 2810 2810 2810 2810 2809 2808 2809 2810 2811 2811 2811 2811 2811 2811 2812 2812 2813 2814 2815 2816 2816 2817 2817 2817 2819 2821 2822 2823 2824 2826 2826 2826 2828 2828 2829 2829 2829 2829 2830 2830 2830 2831 2831 2831 2832 2832 2832 2832 2832 2832 2832 2832 2832 2833 2834 2834
2809 2808 2808 2808 2808 2808 2807 2807 2806 2807 2807 2805 2805 2807 2808 2808 2809 2809 2808 2808 2809 2809 2810 2811 2811 2812 2813 2813 2814 2814 2814 2815 2816 2818 2819 2820 2821 2821 2822 2823 2824 2825 2825 2825 2825 2826 2825 2825 2825 2826 2826 2826 2826 2826 2826 2826 2825 2825 2825 2825 2825 2825 2825
2806 2805 2805 2805 2805 2805 2805 2804 2803 2804 2804 2803 2802 2805 2806 2806 2806 2806 2806 2806 2807 2807 2808 2809 2809 2810 2810 2810 2811 2812 2812 2812 2813 2814 2815 2816 2816 2817 2818 2819 2819 2820 2820 2821 2821 2822 2822 2821 2821 2821 2821 2821 2821 2821 2821 2820 2819 2819 2818 2817 2817 2816 2816
2803 2803 2803 2803 2802 2802 2802 2802 2801 2801 2801 2801 2801 2803 2804 2805 2804 2804 2804 2805 2805 2806 2806 2807 2807 2807 2808 2808 2809 2809 2809 2810 2810 2811 2811 2812 2813 2813 2814 2814 2815 2816 2816 2817 2817 2817 2818 2818 2818 2818 2817 2817 2817 2817 2816 2816 2815 2814 2813 2812 2811 2809 2807
2801 2801 2800 2800 2800 2800 2800 2800 2800 2800 2799 2799 2800 2801 2802 2802 2802 2802 2803 2803 2803 2804 2804 2805 2805 2805 2806 2806 2806 2807 2807 2807 2808 2808 2809 2809 2809 2810 2810 2811 2811 2812 2812 2813 2813 2813 2814 2814 2814 2814 2814 2813 2813 2813 2812 2812 2811 2810 2809 2808 2806 2804 2802
2799 2799 2799 2798 2798 2798 2798 2798 2798 2798 2798 2798 2798 2799 2799 2800 2800 2801 2801 2801 2801 2802 2802 2802 2803 2803 2804 2804 2804 2805 2805 2805 2805 2806 2806 2806 2807 2807 2808 2808 2808 2809 2809 2810 2810 2810 2811 2811 2810 2811 2810 2810 2810 2809 2809 2808 2807 2806 2805 2804 2802 2800 2797
2797 2797 2797 2797 2796 2797 2797 2797 2797 2797 2797 2797 2797 2797 2798 2798 2799 2799 2799 2799 2799 2799 2800 2800 2801 2801 2801 2802 2802 2802 2803 2803 2804 2804 2804 2805 2805 2805 2806 2806 2806 2807 2807 2807 2808 2808 2808 2808 2807 2807 2807 2806 2806 2806 2805 2804 2803 2802 2801 2799 2798 2796 2793
2796 2796 2796 2795 2795 2795 2795 2795 2796 2796 2796 2796 2795 2795 2796 2796 2797 2797 2797 2797 2797 2797 2798 2798 2798 2799 2799 2800 2800 2801 2801 2802 2802 2802 2803 2803 2804 2804 2805 2805 2805 2805 2805 2805 2805 2805 2805 2805 2804 2804 2803 2802 2802 2801 2800 2800 2799 2798 2796 2795 2794 2792 2790
2795 2795 2794 2794 2794 2794 2794 2794 2794 2794 2795 2794 2794 2793 2794 2795 2795 2795 2795 2795 2795 2796 2796 2796 2797 2797 2798 2799 2799 2800 2800 2801 2801 2802 2802 2803 2803 2803 2803 2803 2803 2803 2803 2803 2802 2802 2802 2801 2801 2800 2799 2798 2798 2797 2796 2795 2793 2792 2791 2790 2788 2786 2785
2794 2794 2793 2793 2792 2792 2793 2793 2793 2793 2793 2793 2793 2792 2793 2793 2793 2793 2794 2794 2794 2794 2795 2795 2796 2797 2797 2798 2799 2799 2800 2800 2801 2801 2801 2801 2801 2801 2801 2801 2801 2800 2800 2800 2799 2799 2798 2798 2797 2796 2795 2794 2793 2792 2791 2790 2788 2786 2785 2783 2782 2779 2777
2793 2792 2792 2791 2791 2791 2792 2792 2792 2791 2792 2792 2792 2791 2791 2792 2792 2792 2792 2793 2793 2794 2794 2795 2796 2796 2797 2798 2798 2799 2799 2800 2800 2800 2799 2799 2799 2799 2798 2798 2798 2797 2797 2797 2796 2796 2795 2794 2793 2792 2791 2790 2789 2787 2786 2784 2783 2781 2779 2777 2775 2773 2770
2792 2792 2791 2790 2790 2790 2791 2791 2790 2790 2790 2791 2791 2790 2790 2791 2791 2791 2792 2792 2793 2793 2794 2795 2795 2796 2797 2797 2797 2798 2798 2798 2798 2798 2797 2797 2797 2796 2796 2796 2795 2795 2794 2794 2793 2792 2792 2791 2790 2789 2788 2786 2785 2783 2782 2780 2778 2776 2774 2772 2769 2766 2763
2791 2791 2790 2789 2789 2789 2789 2789 2789 2789 2789 2789 2789 2790 2790 2790 2790 2790 2791 2792 2792 2793 2794 2794 2795 2795 2795 2796 2796 2796 2796 2796 2796 2795 2795 2795 2794 2794 2793 2793 2792 2792 2791 2791 2790 2789 2788 2787 2786 2785 2784 2783 2782 2780 2778 2777 2774 2772 2770 2767 2765 2761 2758
2790 2790 2790 2789 2788 2788 2788 2788 2788 2788 2788 2788 2788 2789 2789 2789 2790 2790 2791 2791 2792 2793 2793 2794 2794 2794 2794 2795 2795 2794 2794 2794 2794 2794 2793 2793 2792 2792 2791 2790 2790 2789 2789 2788 2787 2786 2785 2784 2783 2782 2781 2780 2778 2777 2775 2773 2771 2768 2766 2763 2760 2756 2753
2789 2789 2788 2788 2788 2787 2787 2787 2787 2787 2787 2787 2788 2788 2788 2789 2790 2790 2791 2791 2792 2792 2793 2793 2793 2793 2794 2794 2794 2793 2793 2793 2793 2792 2792 2791 2790 2790 2789 2789 2788 2787 2787 2786 2785 2784 2783 2782 2781 2780 2778 2777 2775 2773 2771 2769 2766 2764 2761 2758 2755 2752 2748
2788 2787 2787 2787 2786 2786 2786 2786 2786 2786 2786 2787 2787 2788 2788 2789 2790 2790 2790 2791 2791 2792 2792 2792 2792 2793 2793 2793 2793 2792 2792 2792 2791 2791 2790 2790 2789 2789 2788 2787 2787 2786 2785 2784 2783 2782 2781 2780 2779 2777 2776 2774 2773 2771 2769 2766 2764 2761 2758 2755 2752 2748 2745
2786 2786 2786 2785 2785 2785 2785 2785 2785 2785 2786 2786 2787 2787 2788 2789 2789 2789 2790 2790 2790 2791 2791 2791 2791 2792 2792 2792 2792 2791 2791 2791 2790 2790 2789 2789 2788 2787 2787 2786 2785 2785 2784 2783 2782 2781 2780 2779 2777 2776 2774 2773 2771 2769 2766 2764 2761 2758 2755 2752 2748 2745 2741